Photometre #246[Polarized_P] Barcelona AOT

File : 20200927_246.hum

27/09/2020,06:32:44,TEMP=14.7,BA=5.64,STAT.A=Abs.,ExtBa=14.19
27/09/2020,06:36:10,TEMP=15.1,BA=5.64,STAT.A=Abs.,ExtBa=14.01
27/09/2020,06:40:15,TEMP=15.3,BA=5.64,STAT.A=Abs.,ExtBa=13.92
27/09/2020,06:45:01,TEMP=15.5,BA=5.64,STAT.A=Abs.,ExtBa=13.91
27/09/2020,06:50:47,TEMP=15.6,BA=5.64,STAT.A=Abs.,ExtBa=13.86
27/09/2020,06:57:56,TEMP=15.8,BA=5.64,STAT.A=Abs.,ExtBa=13.95
27/09/2020,07:06:59,TEMP=16.0,BA=5.64,STAT.B=Abs.,ExtBa=14.00
27/09/2020,07:13:35,TEMP=16.2,BA=5.64,STAT.A=Abs.,ExtBa=13.21
27/09/2020,07:16:10,TEMP=16.2,BA=5.64,STAT.A=Abs.,ExtBa=13.33
27/09/2020,07:21:36,TEMP=16.2,BA=5.64,STAT.A=Abs.,ExtBa=13.56
27/09/2020,07:27:52,TEMP=16.5,BA=5.64,STAT.A=Abs.,ExtBa=13.65
27/09/2020,07:34:59,TEMP=16.7,BA=5.64,STAT.C=Abs.,ExtBa=13.73
27/09/2020,07:47:55,TEMP=18.7,BA=5.64,STAT.A=Abs.,ExtBa=13.24
27/09/2020,07:53:08,TEMP=18.0,BA=5.64,STAT.A=Abs.,ExtBa=13.49
27/09/2020,08:04:58,TEMP=18.1,BA=5.64,STAT.A=Abs.,ExtBa=13.70
27/09/2020,08:19:34,TEMP=18.5,BA=5.64,STAT.A=Abs.,ExtBa=13.75
27/09/2020,08:38:07,TEMP=18.6,BA=5.64,STAT.B=Abs.,ExtBa=13.81
27/09/2020,08:44:40,TEMP=18.8,BA=5.64,STAT.F
27/09/2020,09:00:17,TEMP=20.3,BA=5.64,STAT.b=Abs.
27/09/2020,09:12:47,TEMP=19.5,BA=5.64,STAT.D=Abs.,ExtBa=13.71
27/09/2020,09:27:48,TEMP=20.6,BA=5.64,STAT.D=Abs.,ExtBa=13.76
27/09/2020,09:42:50,TEMP=21.5,BA=5.64,STAT.F
27/09/2020,09:57:48,TEMP=19.0,BA=5.64,STAT.D=Abs.,ExtBa=13.80
27/09/2020,09:59:14,TEMP=19.0,BA=5.64,STAT.b=Abs.
27/09/2020,10:12:50,TEMP=17.8,BA=5.64,STAT.D=Abs.,ExtBa=13.80
27/09/2020,10:27:50,TEMP=17.2,BA=5.64,STAT.D=Abs.,ExtBa=13.80
27/09/2020,10:42:52,TEMP=16.7,BA=5.64,STAT.F
27/09/2020,10:57:50,TEMP=16.3,BA=5.64,STAT.D=Abs.,ExtBa=13.82
27/09/2020,11:12:50,TEMP=16.0,BA=5.64,STAT.D=Abs.,ExtBa=13.83
27/09/2020,11:27:50,TEMP=16.4,BA=5.64,STAT.D=Abs.,ExtBa=13.85
27/09/2020,11:42:52,TEMP=16.8,BA=5.64,STAT.F
27/09/2020,11:57:50,TEMP=16.8,BA=5.64,STAT.D=Abs.,ExtBa=13.86
27/09/2020,12:12:50,TEMP=16.7,BA=5.64,STAT.D=Abs.,ExtBa=13.88
27/09/2020,12:27:50,TEMP=16.8,BA=5.64,STAT.D=Abs.,ExtBa=13.92
27/09/2020,12:42:52,TEMP=16.6,BA=5.64,STAT.F
27/09/2020,12:57:50,TEMP=16.9,BA=5.64,STAT.D=Abs.,ExtBa=13.98
27/09/2020,13:12:50,TEMP=17.0,BA=5.64,STAT.D=Abs.,ExtBa=14.00
27/09/2020,13:27:50,TEMP=17.3,BA=5.64,STAT.D=Abs.,ExtBa=14.04
27/09/2020,13:42:52,TEMP=17.6,BA=5.64,STAT.F
27/09/2020,13:57:50,TEMP=17.6,BA=5.64,STAT.D=Abs.,ExtBa=14.09
27/09/2020,14:12:50,TEMP=17.6,BA=5.64,STAT.D=Abs.,ExtBa=14.11
27/09/2020,14:27:50,TEMP=18.1,BA=5.64,STAT.D=Abs.,ExtBa=14.13
27/09/2020,14:42:51,TEMP=19.0,BA=5.64,STAT.F
27/09/2020,14:47:35,TEMP=19.1,BA=5.64,STAT.B=Abs.,ExtBa=14.04
27/09/2020,15:06:06,TEMP=20.0,BA=5.64,STAT.A=Abs.,ExtBa=14.11
27/09/2020,15:20:41,TEMP=20.8,BA=5.64,STAT.A=Abs.,ExtBa=14.06
27/09/2020,15:32:30,TEMP=20.8,BA=5.64,STAT.A=Abs.,ExtBa=13.79
27/09/2020,15:42:19,TEMP=20.2,BA=5.64,STAT.A=Abs.,ExtBa=13.84
27/09/2020,15:50:39,TEMP=19.8,BA=5.64,STAT.C=Abs.,ExtBa=13.84
27/09/2020,15:57:48,TEMP=19.6,BA=5.64,STAT.A=Abs.,ExtBa=13.88
27/09/2020,16:04:02,TEMP=19.3,BA=5.64,STAT.A=Abs.,ExtBa=13.80
27/09/2020,16:09:30,TEMP=19.2,BA=5.64,STAT.A=Abs.,ExtBa=13.79
27/09/2020,16:14:20,TEMP=19.2,BA=5.64,STAT.A=Abs.,ExtBa=13.75
27/09/2020,16:18:39,TEMP=19.1,BA=5.64,STAT.B=Abs.,ExtBa=13.71
27/09/2020,16:27:41,TEMP=19.0,BA=5.60,STAT.A=Abs.,ExtBa=13.87
27/09/2020,16:34:49,TEMP=19.0,BA=5.64,STAT.A=Abs.,ExtBa=13.88
27/09/2020,16:40:36,TEMP=19.0,BA=5.64,STAT.A=Abs.,ExtBa=13.85
27/09/2020,16:45:25,TEMP=19.1,BA=5.64,STAT.A=Abs.,ExtBa=13.80
27/09/2020,16:49:26,TEMP=19.1,BA=5.64,STAT.A=Abs.,ExtBa=13.75
27/09/2020,16:50:53,TEMP=19.1,BA=5.64,STAT.b=Abs.
27/09/2020,16:52:52,TEMP=19.1,BA=5.64,STAT.A=Abs.,ExtBa=13.71